This is the latest recevied weather packets stored in our database for station/object K1AWR. If no packets are shown the sender has not sent any weather packets the latest 1 day(s).
| Time | Temp. | Humidity | Pressure | Rain* | Wind** | Luminosity | Snow |
|---|---|---|---|---|---|---|---|
| 1778051999 | 15° C | 77% | 1010.6 hPa | 0 mm | 0 m/s | 0 W/m² | - |
| 1778051696 | 15° C | 77% | 1010.6 hPa | 0 mm | 0.45 m/s, 178° | 0 W/m² | - |
| 1778051393 | 15° C | 78% | 1010.6 hPa | 0 mm | 0 m/s | 0 W/m² | - |
| 1778051090 | 15° C | 77% | 1010.6 hPa | 0 mm | 0.89 m/s, 174° | 0 W/m² | - |
| 1778050787 | 15° C | 77% | 1010.3 hPa | 0 mm | 0.45 m/s, 198° | 0 W/m² | - |
| 1778050485 | 15.56° C | 76% | 1010.3 hPa | 0 mm | 0.89 m/s, 292° | 0 W/m² | - |
| 1778050181 | 15.56° C | 77% | 1010.1 hPa | 0 mm | 0.89 m/s, 163° | 0 W/m² | - |
| 1778049877 | 15.56° C | 76% | 1010.2 hPa | 0 mm | 0.89 m/s, 168° | 0 W/m² | - |
| 1778049574 | 15.56° C | 76% | 1010.2 hPa | 0 mm | 0.89 m/s, 196° | 0 W/m² | - |
| 1778049272 | 15.56° C | 75% | 1010.3 hPa | 0 mm | 0.89 m/s, 161° | 0 W/m² | - |
| 1778048970 | 15.56° C | 75% | 1010 hPa | 0 mm | 0.45 m/s, 213° | 0 W/m² | - |
| 1778048668 | 16.11° C | 75% | 1010.3 hPa | 0 mm | 0.89 m/s, 182° | 0 W/m² | - |
| 1778048363 | 16.11° C | 75% | 1010.2 hPa | 0 mm | 0.45 m/s, 185° | 0 W/m² | - |
| 1778048060 | 16.11° C | 75% | 1010.1 hPa | 0 mm | 0.89 m/s, 166° | 0 W/m² | - |
| 1778047758 | 16.11° C | 75% | 1010.3 hPa | 0 mm | 1.34 m/s, 197° | 0 W/m² | - |
| 1778047456 | 16.11° C | 74% | 1010.2 hPa | 0 mm | 0.45 m/s, 198° | 0 W/m² | - |
| 1778047153 | 16.11° C | 74% | 1010.1 hPa | 0 mm | 0.89 m/s, 154° | 0 W/m² | - |
| 1778046850 | 16.11° C | 74% | 1010.2 hPa | 0 mm | 0.45 m/s, 190° | 0 W/m² | - |
| 1778046546 | 16.67° C | 74% | 1010.3 hPa | 0 mm | 0 m/s | 0 W/m² | - |
| 1778046243 | 16.67° C | 73% | 1010.4 hPa | 0 mm | 0.89 m/s, 170° | 0 W/m² | - |
| 1778045939 | 16.67° C | 73% | 1010.2 hPa | 0 mm | 0.45 m/s, 171° | 0 W/m² | - |
| 1778045638 | 16.11° C | 74% | 1010.3 hPa | 0 mm | 0.89 m/s, 199° | 0 W/m² | - |
| 1778045336 | 16.67° C | 73% | 1010.4 hPa | 0 mm | 0.45 m/s, 207° | 0 W/m² | - |
| 1778045034 | 16.67° C | 73% | 1010.3 hPa | 0 mm | 0.89 m/s, 194° | 0 W/m² | - |
| 1778044732 | 16.67° C | 73% | 1010.4 hPa | 0 mm | 0.89 m/s, 197° | 0 W/m² | - |
* Rain latest hour (hover to see other rain measurements)
** Current wind speed in m/s (hover to see current wind gust speed)